Time,TemperatureF,DewpointF,PressureIn,WindDirection,WindDirectionDegrees,WindSpeedMPH,WindSpeedGustMPH,Humidity,HourlyPrecipIn,Conditions,Clouds,dailyrainin,SoftwareType,DateUTC
2013-03-15 00:00:00,62.1,46.2,30.15,South,185,6.0,6.0,56,0.00,,,0.00,Wunderground v.1.15,2013-03-15 05:00:00,
2013-03-15 00:10:00,61.3,45.9,30.15,South,172,5.0,5.0,57,0.00,,,0.00,Wunderground v.1.15,2013-03-15 05:10:00,
2013-03-15 00:20:00,60.4,45.5,30.15,South,181,4.0,4.0,58,0.00,,,0.00,Wunderground v.1.15,2013-03-15 05:20:00,
2013-03-15 00:21:00,60.4,45.0,30.15,South,186,4.0,7.0,58,0.00,,,0.00,weatherlink.com 1.10,2013-03-15 05:21:00,
2013-03-15 00:30:00,60.1,45.7,30.15,South,182,4.0,4.0,59,0.00,,,0.00,Wunderground v.1.15,2013-03-15 05:30:00,
2013-03-15 00:35:00,60.0,45.6,30.15,South,178,4.0,4.0,59,0.00,,,0.00,Wunderground v.1.15,2013-03-15 05:35:00,
2013-03-15 00:36:00,60.0,45.0,30.15,South,178,2.0,6.0,59,0.00,,,0.00,weatherlink.com 1.10,2013-03-15 05:36:00,
2013-03-15 00:45:00,60.0,46.1,30.15,South,190,4.0,6.0,60,0.00,,,0.00,Wunderground v.1.15,2013-03-15 05:45:00,
2013-03-15 00:52:00,60.0,46.0,30.15,South,182,5.0,7.0,60,0.00,,,0.00,weatherlink.com 1.10,2013-03-15 05:52:00,
2013-03-15 01:00:00,60.2,46.3,30.15,SSW,194,4.0,6.0,60,0.00,,,0.00,Wunderground v.1.15,2013-03-15 06:00:00,
2013-03-15 01:05:00,60.2,46.3,30.14,SSW,196,5.0,6.0,60,0.00,,,0.00,Wunderground v.1.15,2013-03-15 06:05:00,
2013-03-15 01:07:00,60.2,46.0,30.14,South,188,3.0,8.0,60,0.00,,,0.00,weatherlink.com 1.10,2013-03-15 06:07:00,
2013-03-15 01:15:00,60.4,46.0,30.14,SSW,213,5.0,5.0,59,0.00,,,0.00,Wunderground v.1.15,2013-03-15 06:15:00,
2013-03-15 01:22:00,60.4,46.0,30.14,SSW,200,7.0,8.0,59,0.00,,,0.00,weatherlink.com 1.10,2013-03-15 06:22:00,
2013-03-15 01:25:00,60.4,46.0,30.14,SSW,194,5.0,7.0,59,0.00,,,0.00,Wunderground v.1.15,2013-03-15 06:25:00,
2013-03-15 01:30:00,60.4,46.4,30.14,SSW,198,5.0,6.0,60,0.00,,,0.00,Wunderground v.1.15,2013-03-15 06:30:00,
2013-03-15 01:35:00,60.3,46.4,30.13,SSW,200,5.0,7.0,60,0.00,,,0.00,Wunderground v.1.15,2013-03-15 06:35:00,
2013-03-15 01:37:00,60.3,46.0,30.13,SSW,213,3.0,9.0,60,0.00,,,0.00,weatherlink.com 1.10,2013-03-15 06:37:00,
2013-03-15 01:45:00,60.1,46.2,30.13,SSW,206,5.0,6.0,60,0.00,,,0.00,Wunderground v.1.15,2013-03-15 06:45:00,
2013-03-15 01:52:00,60.0,46.0,30.13,SW,217,7.0,10.0,60,0.00,,,0.00,weatherlink.com 1.10,2013-03-15 06:52:00,
2013-03-15 02:00:00,59.9,46.4,30.13,SSW,209,6.0,6.0,61,0.00,,,0.00,Wunderground v.1.15,2013-03-15 07:00:00,
2013-03-15 02:05:00,59.8,46.3,30.13,SSW,203,6.0,6.0,61,0.00,,,0.00,Wunderground v.1.15,2013-03-15 07:05:00,
2013-03-15 02:07:00,59.8,46.0,30.13,SSW,202,6.0,9.0,61,0.00,,,0.00,weatherlink.com 1.10,2013-03-15 07:07:00,
2013-03-15 02:15:00,59.7,46.2,30.13,SSW,196,6.0,7.0,61,0.00,,,0.00,Wunderground v.1.15,2013-03-15 07:15:00,
2013-03-15 02:20:00,59.6,46.1,30.13,SSW,196,6.0,7.0,61,0.00,,,0.00,Wunderground v.1.15,2013-03-15 07:20:00,
2013-03-15 02:22:00,59.5,46.0,30.13,SSW,209,3.0,8.0,61,0.00,,,0.00,weatherlink.com 1.10,2013-03-15 07:22:00,
2013-03-15 02:30:00,59.3,46.3,30.13,SSW,200,6.0,7.0,62,0.00,,,0.00,Wunderground v.1.15,2013-03-15 07:30:00,
2013-03-15 02:35:00,59.2,46.2,30.12,SSW,202,6.0,7.0,62,0.00,,,0.00,Wunderground v.1.15,2013-03-15 07:35:00,
2013-03-15 02:38:00,59.1,46.0,30.12,SSW,199,6.0,10.0,62,0.00,,,0.00,weatherlink.com 1.10,2013-03-15 07:38:00,
2013-03-15 02:40:00,59.1,46.1,30.12,SSW,200,6.0,6.0,62,0.00,,,0.00,Wunderground v.1.15,2013-03-15 07:40:00,
2013-03-15 02:45:00,59.0,46.0,30.12,SSW,200,6.0,6.0,62,0.00,,,0.00,Wunderground v.1.15,2013-03-15 07:45:00,
2013-03-15 02:50:00,59.1,46.1,30.12,South,190,6.0,8.0,62,0.00,,,0.00,Wunderground v.1.15,2013-03-15 07:50:00,
2013-03-15 02:54:00,59.1,46.0,30.12,SSW,193,4.0,10.0,62,0.00,,,0.00,weatherlink.com 1.10,2013-03-15 07:54:00,
2013-03-15 03:00:00,59.1,46.1,30.12,SSW,198,6.0,6.0,62,0.00,,,0.00,Wunderground v.1.15,2013-03-15 08:00:00,
2013-03-15 03:05:00,59.0,46.0,30.11,SSW,202,6.0,6.0,62,0.00,,,0.00,Wunderground v.1.15,2013-03-15 08:05:00,
2013-03-15 03:09:00,58.9,46.0,30.12,SSW,194,6.0,7.0,63,0.00,,,0.00,weatherlink.com 1.10,2013-03-15 08:09:00,
2013-03-15 03:10:00,58.9,46.3,30.11,SSW,196,5.0,5.0,63,0.00,,,0.00,Wunderground v.1.15,2013-03-15 08:10:00,
2013-03-15 03:20:00,58.8,46.2,30.11,SSW,202,5.0,9.0,63,0.00,,,0.00,Wunderground v.1.15,2013-03-15 08:20:00,
2013-03-15 03:24:00,58.7,46.0,30.11,SSW,195,7.0,12.0,63,0.00,,,0.00,weatherlink.com 1.10,2013-03-15 08:24:00,
2013-03-15 03:25:00,58.7,46.1,30.11,SSW,210,6.0,9.0,63,0.00,,,0.00,Wunderground v.1.15,2013-03-15 08:25:00,
2013-03-15 03:35:00,58.7,46.1,30.11,SSW,203,6.0,7.0,63,0.00,,,0.00,Wunderground v.1.15,2013-03-15 08:35:00,
2013-03-15 03:38:00,58.6,46.0,30.11,South,190,7.0,10.0,63,0.00,,,0.00,weatherlink.com 1.10,2013-03-15 08:38:00,
2013-03-15 03:45:00,58.4,45.8,30.11,SSW,192,6.0,6.0,63,0.00,,,0.00,Wunderground v.1.15,2013-03-15 08:45:00,
2013-03-15 03:50:00,58.2,46.1,30.11,South,188,5.0,7.0,64,0.00,,,0.00,Wunderground v.1.15,2013-03-15 08:50:00,
2013-03-15 03:54:00,58.0,46.0,30.10,SSW,200,5.0,8.0,64,0.00,,,0.00,weatherlink.com 1.10,2013-03-15 08:54:00,
2013-03-15 04:00:00,57.8,45.7,30.10,SSW,205,6.0,6.0,64,0.00,,,0.00,Wunderground v.1.15,2013-03-15 09:00:00,
2013-03-15 04:09:00,57.6,46.0,30.10,SSW,192,5.0,9.0,65,0.00,,,0.00,weatherlink.com 1.10,2013-03-15 09:09:00,
2013-03-15 04:15:00,57.4,45.7,30.10,SSW,206,6.0,7.0,65,0.00,,,0.00,Wunderground v.1.15,2013-03-15 09:15:00,
2013-03-15 04:24:00,57.1,45.0,30.10,South,174,5.0,9.0,65,0.00,,,0.00,weatherlink.com 1.10,2013-03-15 09:24:00,
2013-03-15 04:30:00,56.9,45.7,30.09,SSW,192,5.0,5.0,66,0.00,,,0.00,Wunderground v.1.15,2013-03-15 09:30:00,
2013-03-15 04:35:00,56.8,45.6,30.09,South,185,5.0,5.0,66,0.00,,,0.00,Wunderground v.1.15,2013-03-15 09:35:00,
2013-03-15 04:39:00,56.7,45.0,30.09,SSW,192,3.0,8.0,66,0.00,,,0.00,weatherlink.com 1.10,2013-03-15 09:39:00,
2013-03-15 04:45:00,56.5,45.3,30.09,South,188,5.0,5.0,66,0.00,,,0.00,Wunderground v.1.15,2013-03-15 09:45:00,
2013-03-15 04:54:00,56.4,45.0,30.09,South,189,7.0,8.0,67,0.00,,,0.00,weatherlink.com 1.10,2013-03-15 09:54:00,
2013-03-15 05:00:00,56.3,45.5,30.09,SSW,196,6.0,6.0,67,0.00,,,0.00,Wunderground v.1.15,2013-03-15 10:00:00,
2013-03-15 05:05:00,56.2,45.4,30.08,South,180,6.0,6.0,67,0.00,,,0.00,Wunderground v.1.15,2013-03-15 10:05:00,
2013-03-15 05:09:00,56.1,45.0,30.08,South,186,7.0,9.0,67,0.00,,,0.00,weatherlink.com 1.10,2013-03-15 10:09:00,
2013-03-15 05:10:00,56.1,45.3,30.08,South,185,6.0,7.0,67,0.00,,,0.00,Wunderground v.1.15,2013-03-15 10:10:00,
2013-03-15 05:15:00,55.9,45.1,30.08,South,176,6.0,7.0,67,0.00,,,0.00,Wunderground v.1.15,2013-03-15 10:15:00,
2013-03-15 05:20:00,55.7,45.3,30.08,SSE,162,6.0,6.0,68,0.00,,,0.00,Wunderground v.1.15,2013-03-15 10:20:00,
2013-03-15 05:24:00,55.3,45.0,30.07,South,178,4.0,9.0,68,0.00,,,0.00,weatherlink.com 1.10,2013-03-15 10:24:00,
2013-03-15 05:30:00,54.8,44.8,30.07,South,175,5.0,5.0,69,0.00,,,0.00,Wunderground v.1.15,2013-03-15 10:30:00,
2013-03-15 05:39:00,54.6,45.0,30.09,South,191,3.0,7.0,70,0.00,,,0.00,weatherlink.com 1.10,2013-03-15 10:39:00,
2013-03-15 05:45:00,54.7,45.1,30.08,SSW,198,5.0,8.0,70,0.00,,,0.00,Wunderground v.1.15,2013-03-15 10:45:00,
2013-03-15 05:54:00,54.6,45.0,30.08,South,189,5.0,8.0,70,0.00,,,0.00,weatherlink.com 1.10,2013-03-15 10:54:00,
2013-03-15 06:00:00,54.6,45.0,30.08,South,175,6.0,6.0,70,0.00,,,0.00,Wunderground v.1.15,2013-03-15 11:00:00,
2013-03-15 06:05:00,54.5,44.9,30.08,South,171,6.0,6.0,70,0.00,,,0.00,Wunderground v.1.15,2013-03-15 11:05:00,
2013-03-15 06:09:00,54.3,45.0,30.08,South,178,5.0,9.0,71,0.00,,,0.00,weatherlink.com 1.10,2013-03-15 11:09:00,
2013-03-15 06:15:00,54.1,44.9,30.08,South,186,5.0,6.0,71,0.00,,,0.00,Wunderground v.1.15,2013-03-15 11:15:00,
2013-03-15 06:20:00,54.1,44.9,30.08,South,188,6.0,6.0,71,0.00,,,0.00,Wunderground v.1.15,2013-03-15 11:20:00,
2013-03-15 06:24:00,54.1,45.0,30.08,SSW,204,7.0,11.0,71,0.00,,,0.00,weatherlink.com 1.10,2013-03-15 11:24:00,
2013-03-15 06:30:00,54.1,45.3,30.08,SSW,208,7.0,7.0,72,0.00,,,0.00,Wunderground v.1.15,2013-03-15 11:30:00,
2013-03-15 06:35:00,54.2,45.4,30.08,South,183,7.0,7.0,72,0.00,,,0.00,Wunderground v.1.15,2013-03-15 11:35:00,
2013-03-15 06:39:00,54.2,45.0,30.08,South,186,7.0,12.0,72,0.00,,,0.00,weatherlink.com 1.10,2013-03-15 11:39:00,
2013-03-15 06:45:00,54.2,45.4,30.08,SSE,167,7.0,7.0,72,0.00,,,0.00,Wunderground v.1.15,2013-03-15 11:45:00,
2013-03-15 06:50:00,54.4,45.6,30.08,SSW,192,7.0,8.0,72,0.00,,,0.00,Wunderground v.1.15,2013-03-15 11:50:00,
2013-03-15 06:55:00,54.5,45.7,30.08,South,179,7.0,8.0,72,0.00,,,0.00,Wunderground v.1.15,2013-03-15 11:55:00,
2013-03-15 06:56:00,54.5,46.0,30.08,South,180,7.0,13.0,72,0.00,,,0.00,weatherlink.com 1.10,2013-03-15 11:56:00,
2013-03-15 07:05:00,54.5,45.7,30.08,SSW,202,7.0,8.0,72,0.00,,,0.00,Wunderground v.1.15,2013-03-15 12:05:00,
2013-03-15 07:15:00,54.3,45.8,30.08,SSW,198,7.0,10.0,73,0.00,,,0.00,Wunderground v.1.15,2013-03-15 12:15:00,
2013-03-15 07:20:00,54.2,45.7,30.08,SSW,207,7.0,9.0,73,0.00,,,0.00,Wunderground v.1.15,2013-03-15 12:20:00,
2013-03-15 07:25:00,54.1,45.6,30.08,SW,217,7.0,9.0,73,0.00,,,0.00,Wunderground v.1.15,2013-03-15 12:25:00,
2013-03-15 07:26:00,54.1,46.0,30.08,SSW,200,8.0,11.0,73,0.00,,,0.00,weatherlink.com 1.10,2013-03-15 12:26:00,
2013-03-15 07:35:00,53.9,45.8,30.08,SW,216,6.0,10.0,74,0.00,,,0.00,Wunderground v.1.15,2013-03-15 12:35:00,
2013-03-15 07:41:00,53.7,46.0,30.08,SSW,207,7.0,13.0,74,0.00,,,0.00,weatherlink.com 1.10,2013-03-15 12:41:00,
2013-03-15 07:50:00,53.6,45.9,30.08,South,186,8.0,8.0,75,0.00,,,0.00,Wunderground v.1.15,2013-03-15 12:50:00,
2013-03-15 07:56:00,53.5,46.0,30.08,South,188,8.0,11.0,76,0.00,,,0.00,weatherlink.com 1.10,2013-03-15 12:56:00,
2013-03-15 08:05:00,53.6,46.2,30.08,SSW,199,8.0,8.0,76,0.00,,,0.00,Wunderground v.1.15,2013-03-15 13:05:00,
2013-03-15 08:10:00,53.7,46.3,30.08,SSW,209,8.0,9.0,76,0.00,,,0.00,Wunderground v.1.15,2013-03-15 13:10:00,
2013-03-15 08:11:00,53.7,46.0,30.08,SSW,209,8.0,12.0,76,0.00,,,0.00,weatherlink.com 1.10,2013-03-15 13:11:00,
2013-03-15 08:20:00,54.1,46.7,30.08,South,181,8.0,8.0,76,0.00,,,0.00,Wunderground v.1.15,2013-03-15 13:20:00,
2013-03-15 08:25:00,54.2,46.8,30.08,South,190,8.0,10.0,76,0.00,,,0.00,Wunderground v.1.15,2013-03-15 13:25:00,
2013-03-15 08:26:00,54.3,47.0,30.07,SSW,205,8.0,16.0,76,0.00,,,0.00,weatherlink.com 1.10,2013-03-15 13:26:00,
2013-03-15 08:35:00,54.6,47.2,30.07,South,184,8.0,10.0,76,0.00,,,0.00,Wunderground v.1.15,2013-03-15 13:35:00,
2013-03-15 08:41:00,54.9,47.0,30.07,SW,214,10.0,14.0,75,0.00,,,0.00,weatherlink.com 1.10,2013-03-15 13:41:00,
2013-03-15 08:50:00,55.4,47.6,30.07,South,188,8.0,11.0,75,0.00,,,0.00,Wunderground v.1.15,2013-03-15 13:50:00,
2013-03-15 08:55:00,55.7,47.9,30.07,SSW,211,8.0,11.0,75,0.00,,,0.00,Wunderground v.1.15,2013-03-15 13:55:00,
2013-03-15 08:56:00,55.7,48.0,30.07,SSW,205,11.0,16.0,75,0.00,,,0.00,weatherlink.com 1.10,2013-03-15 13:56:00,
2013-03-15 09:05:00,56.2,48.0,30.07,South,176,9.0,13.0,74,0.00,,,0.00,Wunderground v.1.15,2013-03-15 14:05:00,
2013-03-15 09:11:00,56.6,48.0,30.07,South,190,6.0,16.0,73,0.00,,,0.00,weatherlink.com 1.10,2013-03-15 14:11:00,
2013-03-15 09:20:00,57.2,48.3,30.07,South,185,9.0,9.0,72,0.00,,,0.00,Wunderground v.1.15,2013-03-15 14:20:00,
2013-03-15 09:26:00,57.8,49.0,30.07,SSW,194,10.0,15.0,72,0.00,,,0.00,weatherlink.com 1.10,2013-03-15 14:26:00,
2013-03-15 09:35:00,58.6,48.8,30.07,SSW,199,7.0,10.0,70,0.00,,,0.00,Wunderground v.1.15,2013-03-15 14:35:00,
2013-03-15 09:40:00,59.1,48.5,30.07,SSW,198,8.0,8.0,68,0.00,,,0.00,Wunderground v.1.15,2013-03-15 14:40:00,
2013-03-15 09:45:00,59.7,48.7,30.07,SSW,205,9.0,11.0,67,0.00,,,0.00,Wunderground v.1.15,2013-03-15 14:45:00,
2013-03-15 09:50:00,60.3,48.9,30.07,SW,225,9.0,10.0,66,0.00,,,0.00,Wunderground v.1.15,2013-03-15 14:50:00,
2013-03-15 09:56:00,60.9,49.0,30.07,South,183,10.0,16.0,65,0.00,,,0.00,weatherlink.com 1.10,2013-03-15 14:56:00,
2013-03-15 10:05:00,61.7,49.0,30.07,SW,220,9.0,15.0,63,0.00,,,0.00,Wunderground v.1.15,2013-03-15 15:05:00,
2013-03-15 10:10:00,62.2,49.0,30.07,SW,220,10.0,11.0,62,0.00,,,0.00,Wunderground v.1.15,2013-03-15 15:10:00,
2013-03-15 10:12:00,62.5,49.0,30.07,SSW,211,8.0,17.0,62,0.00,,,0.00,weatherlink.com 1.10,2013-03-15 15:12:00,
2013-03-15 10:20:00,62.8,49.1,30.06,SSW,211,10.0,10.0,61,0.00,,,0.00,Wunderground v.1.15,2013-03-15 15:20:00,
2013-03-15 10:27:00,63.5,49.0,30.06,SSW,200,9.0,15.0,60,0.00,,,0.00,weatherlink.com 1.10,2013-03-15 15:27:00,
2013-03-15 10:35:00,64.2,49.6,30.06,South,175,9.0,10.0,59,0.00,,,0.00,Wunderground v.1.15,2013-03-15 15:35:00,
2013-03-15 10:40:00,64.5,49.4,30.06,SW,219,9.0,13.0,58,0.00,,,0.00,Wunderground v.1.15,2013-03-15 15:40:00,
2013-03-15 10:42:00,64.7,49.0,30.06,SW,218,10.0,17.0,57,0.00,,,0.00,weatherlink.com 1.10,2013-03-15 15:42:00,
2013-03-15 10:50:00,65.3,49.2,30.06,SSW,204,9.0,10.0,56,0.00,,,0.00,Wunderground v.1.15,2013-03-15 15:50:00,
2013-03-15 10:57:00,65.7,49.0,30.06,SSW,202,12.0,17.0,56,0.00,,,0.00,weatherlink.com 1.10,2013-03-15 15:57:00,
2013-03-15 11:05:00,66.3,49.6,30.05,SSW,202,10.0,10.0,55,0.00,,,0.00,Wunderground v.1.15,2013-03-15 16:05:00,
2013-03-15 11:10:00,66.7,49.0,30.05,SSW,209,10.0,10.0,53,0.00,,,0.00,Wunderground v.1.15,2013-03-15 16:10:00,
2013-03-15 11:12:00,66.9,49.0,30.05,SW,228,10.0,18.0,53,0.00,,,0.00,weatherlink.com 1.10,2013-03-15 16:12:00,
2013-03-15 11:20:00,67.3,49.1,30.05,SW,231,11.0,11.0,52,0.00,,,0.00,Wunderground v.1.15,2013-03-15 16:20:00,
2013-03-15 11:25:00,68.1,49.3,30.05,WSW,247,10.0,11.0,51,0.00,,,0.00,Wunderground v.1.15,2013-03-15 16:25:00,
2013-03-15 11:27:00,68.4,49.0,30.04,SSW,207,11.0,15.0,50,0.00,,,0.00,weatherlink.com 1.10,2013-03-15 16:27:00,
2013-03-15 11:35:00,68.9,49.5,30.04,SSW,205,9.0,9.0,50,0.00,,,0.00,Wunderground v.1.15,2013-03-15 16:35:00,
2013-03-15 11:42:00,69.1,49.0,30.04,South,169,7.0,15.0,49,0.00,,,0.00,weatherlink.com 1.10,2013-03-15 16:42:00,
2013-03-15 11:50:00,69.8,49.2,30.04,SW,221,10.0,10.0,48,0.00,,,0.00,Wunderground v.1.15,2013-03-15 16:50:00,
2013-03-15 11:59:00,70.5,49.0,30.03,SSW,198,13.0,17.0,46,0.00,,,0.00,weatherlink.com 1.10,2013-03-15 16:59:00,
2013-03-15 12:00:00,70.5,48.7,30.03,SSW,213,11.0,12.0,46,0.00,,,0.00,Wunderground v.1.15,2013-03-15 17:00:00,
2013-03-15 12:05:00,70.8,48.4,30.03,SW,216,12.0,12.0,45,0.00,,,0.00,Wunderground v.1.15,2013-03-15 17:05:00,
2013-03-15 12:10:00,71.3,48.9,30.03,SW,217,11.0,11.0,45,0.00,,,0.00,Wunderground v.1.15,2013-03-15 17:10:00,
2013-03-15 12:13:00,71.6,48.0,30.03,SSW,202,12.0,18.0,44,0.00,,,0.00,weatherlink.com 1.10,2013-03-15 17:13:00,
2013-03-15 12:20:00,72.2,47.8,30.02,SSW,212,10.0,10.0,42,0.00,,,0.00,Wunderground v.1.15,2013-03-15 17:20:00,
2013-03-15 12:25:00,72.6,47.5,30.02,SW,216,11.0,11.0,41,0.00,,,0.00,Wunderground v.1.15,2013-03-15 17:25:00,
2013-03-15 12:29:00,72.8,48.0,30.02,SSW,206,9.0,21.0,42,0.00,,,0.00,weatherlink.com 1.10,2013-03-15 17:29:00,
2013-03-15 12:35:00,73.2,48.7,30.02,South,183,9.0,18.0,42,0.00,,,0.00,Wunderground v.1.15,2013-03-15 17:35:00,
2013-03-15 12:44:00,73.0,48.0,30.01,SSW,202,10.0,20.0,42,0.00,,,0.00,weatherlink.com 1.10,2013-03-15 17:44:00,
2013-03-15 12:50:00,72.8,48.4,30.01,SSW,193,12.0,18.0,42,0.00,,,0.00,Wunderground v.1.15,2013-03-15 17:50:00,
2013-03-15 12:55:00,73.1,48.6,30.01,SW,218,13.0,18.0,42,0.00,,,0.00,Wunderground v.1.15,2013-03-15 17:55:00,
2013-03-15 12:59:00,73.3,48.0,30.01,SW,226,11.0,22.0,41,0.00,,,0.00,weatherlink.com 1.10,2013-03-15 17:59:00,
2013-03-15 13:05:00,73.8,49.3,30.01,SSW,209,12.0,15.0,42,0.00,,,0.00,Wunderground v.1.15,2013-03-15 18:05:00,
2013-03-15 13:10:00,73.9,48.7,30.00,SW,217,10.0,11.0,41,0.00,,,0.00,Wunderground v.1.15,2013-03-15 18:10:00,
2013-03-15 13:13:00,74.2,50.0,30.00,SSW,198,18.0,20.0,42,0.00,,,0.00,weatherlink.com 1.10,2013-03-15 18:13:00,
2013-03-15 13:15:00,74.1,49.5,30.00,SSW,208,11.0,12.0,42,0.00,,,0.00,Wunderground v.1.15,2013-03-15 18:15:00,
2013-03-15 13:25:00,74.4,49.8,30.00,SSW,205,13.0,17.0,42,0.00,,,0.00,Wunderground v.1.15,2013-03-15 18:25:00,
2013-03-15 13:29:00,74.3,50.0,29.99,South,182,11.0,19.0,43,0.00,,,0.00,weatherlink.com 1.10,2013-03-15 18:29:00,
2013-03-15 13:30:00,74.3,49.7,29.99,South,190,12.0,15.0,42,0.00,,,0.00,Wunderground v.1.15,2013-03-15 18:30:00,
2013-03-15 13:40:00,75.0,51.0,29.98,SSW,211,11.0,11.0,43,0.00,,,0.00,Wunderground v.1.15,2013-03-15 18:40:00,
2013-03-15 13:44:00,74.9,51.0,29.98,South,182,12.0,21.0,43,0.00,,,0.00,weatherlink.com 1.10,2013-03-15 18:44:00,
2013-03-15 13:55:00,75.5,50.1,29.97,South,173,12.0,13.0,41,0.00,,,0.00,Wunderground v.1.15,2013-03-15 18:55:00,
2013-03-15 13:59:00,75.9,50.0,29.97,SW,223,15.0,21.0,41,0.00,,,0.00,weatherlink.com 1.10,2013-03-15 18:59:00,
2013-03-15 14:05:00,76.1,50.0,29.96,South,191,13.0,18.0,40,0.00,,,0.00,Wunderground v.1.15,2013-03-15 19:05:00,
2013-03-15 14:14:00,76.3,50.0,29.96,South,178,19.0,21.0,40,0.00,,,0.00,weatherlink.com 1.10,2013-03-15 19:14:00,
2013-03-15 14:20:00,76.6,49.8,29.95,SW,214,14.0,19.0,39,0.00,,,0.00,Wunderground v.1.15,2013-03-15 19:20:00,
2013-03-15 14:25:00,77.1,49.5,29.95,SSW,192,13.0,19.0,38,0.00,,,0.00,Wunderground v.1.15,2013-03-15 19:25:00,
2013-03-15 14:29:00,77.0,50.0,29.95,SSW,203,13.0,22.0,39,0.00,,,0.00,weatherlink.com 1.10,2013-03-15 19:29:00,
2013-03-15 14:40:00,77.7,49.3,29.93,SSW,202,12.0,12.0,37,0.00,,,0.00,Wunderground v.1.15,2013-03-15 19:40:00,
2013-03-15 14:44:00,77.8,50.0,29.93,SSW,194,18.0,19.0,38,0.00,,,0.00,weatherlink.com 1.10,2013-03-15 19:44:00,
2013-03-15 14:50:00,77.7,50.8,29.93,SW,221,14.0,14.0,39,0.00,,,0.00,Wunderground v.1.15,2013-03-15 19:50:00,
2013-03-15 14:55:00,78.0,50.3,29.93,SSW,208,14.0,14.0,38,0.00,,,0.00,Wunderground v.1.15,2013-03-15 19:55:00,
2013-03-15 14:59:00,78.7,50.0,29.92,SSW,194,10.0,19.0,36,0.00,,,0.00,weatherlink.com 1.10,2013-03-15 19:59:00,
2013-03-15 15:05:00,78.7,50.2,29.92,South,171,12.0,12.0,37,0.00,,,0.00,Wunderground v.1.15,2013-03-15 20:05:00,
2013-03-15 15:10:00,78.7,50.2,29.92,South,187,13.0,15.0,37,0.00,,,0.00,Wunderground v.1.15,2013-03-15 20:10:00,
2013-03-15 15:15:00,78.7,51.0,29.91,SSW,209,13.0,15.0,38,0.00,,,0.00,Wunderground v.1.15,2013-03-15 20:15:00,
2013-03-15 15:16:00,78.7,51.0,29.92,SW,218,7.0,23.0,38,0.00,,,0.00,weatherlink.com 1.10,2013-03-15 20:16:00,
2013-03-15 15:25:00,78.9,50.4,29.91,SSE,154,14.0,16.0,37,0.00,,,0.00,Wunderground v.1.15,2013-03-15 20:25:00,
2013-03-15 15:29:00,79.0,51.0,29.91,South,184,11.0,23.0,37,0.00,,,0.00,weatherlink.com 1.10,2013-03-15 20:29:00,
2013-03-15 15:35:00,79.2,49.9,29.91,SW,223,13.0,13.0,36,0.00,,,0.00,Wunderground v.1.15,2013-03-15 20:35:00,
2013-03-15 15:45:00,79.9,50.6,29.90,South,188,13.0,13.0,36,0.00,,,0.00,Wunderground v.1.15,2013-03-15 20:45:00,
2013-03-15 15:55:00,80.0,48.3,29.90,SSW,211,16.0,16.0,33,0.00,,,0.00,Wunderground v.1.15,2013-03-15 20:55:00,
2013-03-15 16:01:00,80.0,48.0,29.89,South,186,9.0,26.0,33,0.00,,,0.00,weatherlink.com 1.10,2013-03-15 21:01:00,
2013-03-15 16:10:00,80.3,47.7,29.89,SSE,168,15.0,19.0,32,0.00,,,0.00,Wunderground v.1.15,2013-03-15 21:10:00,
2013-03-15 16:15:00,80.4,48.7,29.89,South,182,15.0,19.0,33,0.00,,,0.00,Wunderground v.1.15,2013-03-15 21:15:00,
2013-03-15 16:16:00,80.5,49.0,29.89,SSW,211,12.0,25.0,33,0.00,,,0.00,weatherlink.com 1.10,2013-03-15 21:16:00,
2013-03-15 16:20:00,80.8,48.2,29.89,SSE,167,14.0,15.0,32,0.00,,,0.00,Wunderground v.1.15,2013-03-15 21:20:00,
2013-03-15 16:25:00,80.6,48.0,29.89,South,184,15.0,20.0,32,0.00,,,0.00,Wunderground v.1.15,2013-03-15 21:25:00,
2013-03-15 16:30:00,80.3,46.9,29.89,SSW,200,16.0,16.0,31,0.00,,,0.00,Wunderground v.1.15,2013-03-15 21:30:00,
2013-03-15 16:31:00,80.3,47.0,29.89,South,185,15.0,24.0,31,0.00,,,0.00,weatherlink.com 1.10,2013-03-15 21:31:00,
2013-03-15 16:40:00,80.5,47.1,29.88,SSW,201,15.0,15.0,31,0.00,,,0.00,Wunderground v.1.15,2013-03-15 21:40:00,
2013-03-15 16:46:00,80.9,48.0,29.88,SSW,213,8.0,25.0,31,0.00,,,0.00,weatherlink.com 1.10,2013-03-15 21:46:00,
2013-03-15 16:50:00,80.7,47.2,29.88,SSW,203,15.0,15.0,31,0.00,,,0.00,Wunderground v.1.15,2013-03-15 21:50:00,
2013-03-15 17:00:00,80.3,46.9,29.87,SW,227,14.0,16.0,31,0.00,,,0.00,Wunderground v.1.15,2013-03-15 22:00:00,
2013-03-15 17:01:00,80.2,47.0,29.88,SSW,194,14.0,25.0,31,0.00,,,0.00,weatherlink.com 1.10,2013-03-15 22:01:00,
2013-03-15 17:10:00,80.4,46.1,29.87,SSW,198,17.0,17.0,30,0.00,,,0.00,Wunderground v.1.15,2013-03-15 22:10:00,
2013-03-15 17:20:00,80.3,47.7,29.86,SSW,198,16.0,16.0,32,0.00,,,0.00,Wunderground v.1.15,2013-03-15 22:20:00,
2013-03-15 17:25:00,80.3,47.7,29.86,SSW,195,16.0,16.0,32,0.00,,,0.00,Wunderground v.1.15,2013-03-15 22:25:00,
2013-03-15 17:30:00,80.2,47.7,29.87,South,177,16.0,18.0,32,0.00,,,0.00,Wunderground v.1.15,2013-03-15 22:30:00,
2013-03-15 17:31:00,80.2,48.0,29.86,SSW,194,8.0,26.0,32,0.00,,,0.00,weatherlink.com 1.10,2013-03-15 22:31:00,
2013-03-15 17:40:00,80.2,46.8,29.86,SW,221,14.0,14.0,31,0.00,,,0.00,Wunderground v.1.15,2013-03-15 22:40:00,
2013-03-15 17:45:00,80.0,46.6,29.86,SSW,213,15.0,18.0,31,0.00,,,0.00,Wunderground v.1.15,2013-03-15 22:45:00,
2013-03-15 17:46:00,80.0,47.0,29.86,SSW,210,14.0,23.0,31,0.00,,,0.00,weatherlink.com 1.10,2013-03-15 22:46:00,
2013-03-15 17:55:00,80.2,46.8,29.86,SSE,168,13.0,15.0,31,0.00,,,0.00,Wunderground v.1.15,2013-03-15 22:55:00,
2013-03-15 18:00:00,80.1,46.7,29.86,South,169,13.0,18.0,31,0.00,,,0.00,Wunderground v.1.15,2013-03-15 23:00:00,
2013-03-15 18:01:00,80.0,47.0,29.86,SSW,193,22.0,23.0,31,0.00,,,0.00,weatherlink.com 1.10,2013-03-15 23:01:00,
2013-03-15 18:10:00,79.8,45.6,29.86,SW,220,16.0,19.0,30,0.00,,,0.00,Wunderground v.1.15,2013-03-15 23:10:00,
2013-03-15 18:15:00,79.8,45.6,29.86,SW,214,16.0,19.0,30,0.00,,,0.00,Wunderground v.1.15,2013-03-15 23:15:00,
2013-03-15 18:16:00,79.8,46.0,29.86,South,178,19.0,25.0,30,0.00,,,0.00,weatherlink.com 1.10,2013-03-15 23:16:00,
2013-03-15 18:25:00,79.5,46.2,29.85,SSW,205,14.0,15.0,31,0.00,,,0.00,Wunderground v.1.15,2013-03-15 23:25:00,
2013-03-15 18:30:00,79.3,46.0,29.85,South,191,13.0,13.0,31,0.00,,,0.00,Wunderground v.1.15,2013-03-15 23:30:00,
2013-03-15 18:31:00,79.2,46.0,29.86,SSW,211,9.0,19.0,31,0.00,,,0.00,weatherlink.com 1.10,2013-03-15 23:31:00,
2013-03-15 18:40:00,78.9,45.7,29.85,SSW,207,11.0,12.0,31,0.00,,,0.00,Wunderground v.1.15,2013-03-15 23:40:00,
2013-03-15 18:45:00,78.7,45.5,29.85,SSW,204,13.0,13.0,31,0.00,,,0.00,Wunderground v.1.15,2013-03-15 23:45:00,
2013-03-15 18:46:00,78.7,46.0,29.86,SSW,194,12.0,23.0,31,0.00,,,0.00,weatherlink.com 1.10,2013-03-15 23:46:00,
2013-03-15 18:55:00,78.3,46.0,29.86,SSW,205,10.0,13.0,32,0.00,,,0.00,Wunderground v.1.15,2013-03-15 23:55:00,
2013-03-15 19:00:00,78.1,45.8,29.85,South,178,9.0,14.0,32,0.00,,,0.00,Wunderground v.1.15,2013-03-16 00:00:00,
2013-03-15 19:10:00,77.6,45.4,29.85,South,186,10.0,13.0,32,0.00,,,0.00,Wunderground v.1.15,2013-03-16 00:10:00,
2013-03-15 19:15:00,77.4,45.2,29.85,South,190,11.0,13.0,32,0.00,,,0.00,Wunderground v.1.15,2013-03-16 00:15:00,
2013-03-15 19:20:00,77.1,45.0,29.85,South,182,11.0,11.0,32,0.00,,,0.00,Wunderground v.1.15,2013-03-16 00:20:00,
2013-03-15 19:30:00,76.5,44.4,29.85,SSW,193,11.0,11.0,32,0.00,,,0.00,Wunderground v.1.15,2013-03-16 00:30:00,
2013-03-15 19:32:00,76.4,44.0,29.85,SSW,198,6.0,17.0,32,0.00,,,0.00,weatherlink.com 1.10,2013-03-16 00:32:00,
2013-03-15 19:40:00,76.0,44.8,29.85,SSW,208,11.0,11.0,33,0.00,,,0.00,Wunderground v.1.15,2013-03-16 00:40:00,
2013-03-15 19:45:00,75.7,44.5,29.85,South,173,11.0,11.0,33,0.00,,,0.00,Wunderground v.1.15,2013-03-16 00:45:00,
2013-03-15 19:47:00,75.6,44.0,29.85,SSW,192,7.0,21.0,33,0.00,,,0.00,weatherlink.com 1.10,2013-03-16 00:47:00,
2013-03-15 19:55:00,75.2,44.9,29.85,SW,221,10.0,10.0,34,0.00,,,0.00,Wunderground v.1.15,2013-03-16 00:55:00,
2013-03-15 20:00:00,74.9,44.6,29.85,South,169,9.0,14.0,34,0.00,,,0.00,Wunderground v.1.15,2013-03-16 01:00:00,
2013-03-15 20:02:00,74.8,45.0,29.85,South,180,11.0,16.0,34,0.00,,,0.00,weatherlink.com 1.10,2013-03-16 01:02:00,
2013-03-15 20:10:00,74.4,45.0,29.85,South,175,10.0,13.0,35,0.00,,,0.00,Wunderground v.1.15,2013-03-16 01:10:00,
2013-03-15 20:15:00,74.2,44.8,29.85,South,178,10.0,13.0,35,0.00,,,0.00,Wunderground v.1.15,2013-03-16 01:15:00,
2013-03-15 20:17:00,74.1,45.0,29.84,SSW,196,10.0,15.0,35,0.00,,,0.00,weatherlink.com 1.10,2013-03-16 01:17:00,
2013-03-15 20:25:00,73.7,45.1,29.84,South,173,11.0,15.0,36,0.00,,,0.00,Wunderground v.1.15,2013-03-16 01:25:00,
2013-03-15 20:30:00,73.5,44.9,29.84,South,175,11.0,11.0,36,0.00,,,0.00,Wunderground v.1.15,2013-03-16 01:30:00,
2013-03-15 20:32:00,73.4,45.0,29.84,South,189,8.0,17.0,37,0.00,,,0.00,weatherlink.com 1.10,2013-03-16 01:32:00,
2013-03-15 20:40:00,73.0,45.2,29.84,SSW,194,10.0,10.0,37,0.00,,,0.00,Wunderground v.1.15,2013-03-16 01:40:00,
2013-03-15 20:45:00,72.8,45.0,29.84,SSW,198,10.0,10.0,37,0.00,,,0.00,Wunderground v.1.15,2013-03-16 01:45:00,
2013-03-15 20:47:00,72.8,45.0,29.84,SSW,192,13.0,16.0,37,0.00,,,0.00,weatherlink.com 1.10,2013-03-16 01:47:00,
2013-03-15 20:55:00,72.8,45.0,29.84,SSW,198,11.0,19.0,37,0.00,,,0.00,Wunderground v.1.15,2013-03-16 01:55:00,
2013-03-15 21:00:00,72.7,44.9,29.84,SSW,198,11.0,12.0,37,0.00,,,0.00,Wunderground v.1.15,2013-03-16 02:00:00,
2013-03-15 21:04:00,72.6,45.0,29.84,South,182,11.0,17.0,37,0.00,,,0.00,weatherlink.com 1.10,2013-03-16 02:04:00,
2013-03-15 21:10:00,72.5,44.7,29.84,South,191,11.0,14.0,37,0.00,,,0.00,Wunderground v.1.15,2013-03-16 02:10:00,
2013-03-15 21:15:00,72.5,44.7,29.84,South,179,11.0,14.0,37,0.00,,,0.00,Wunderground v.1.15,2013-03-16 02:15:00,
2013-03-15 21:19:00,72.4,45.0,29.84,South,174,15.0,21.0,37,0.00,,,0.00,weatherlink.com 1.10,2013-03-16 02:19:00,
2013-03-15 21:25:00,72.2,45.2,29.84,South,190,11.0,12.0,38,0.00,,,0.00,Wunderground v.1.15,2013-03-16 02:25:00,
2013-03-15 21:30:00,71.9,44.9,29.84,SSW,210,10.0,15.0,38,0.00,,,0.00,Wunderground v.1.15,2013-03-16 02:30:00,
2013-03-15 21:34:00,71.7,45.0,29.84,SSW,193,9.0,15.0,39,0.00,,,0.00,weatherlink.com 1.10,2013-03-16 02:34:00,
2013-03-15 21:40:00,71.5,45.2,29.84,SSW,206,9.0,9.0,39,0.00,,,0.00,Wunderground v.1.15,2013-03-16 02:40:00,
2013-03-15 21:48:00,71.2,45.0,29.84,South,185,12.0,19.0,39,0.00,,,0.00,weatherlink.com 1.10,2013-03-16 02:48:00,
2013-03-15 21:55:00,70.8,45.3,29.84,South,171,10.0,14.0,40,0.00,,,0.00,Wunderground v.1.15,2013-03-16 02:55:00,
2013-03-15 22:00:00,70.4,45.6,29.84,SSE,155,9.0,9.0,41,0.00,,,0.00,Wunderground v.1.15,2013-03-16 03:00:00,
2013-03-15 22:04:00,69.9,45.0,29.84,SSW,196,7.0,14.0,41,0.00,,,0.00,weatherlink.com 1.10,2013-03-16 03:04:00,
2013-03-15 22:10:00,69.2,45.7,29.84,South,175,8.0,9.0,43,0.00,,,0.00,Wunderground v.1.15,2013-03-16 03:10:00,
2013-03-15 22:15:00,68.8,45.4,29.84,South,189,8.0,9.0,43,0.00,,,0.00,Wunderground v.1.15,2013-03-16 03:15:00,
2013-03-15 22:19:00,68.7,46.0,29.84,SSW,194,9.0,14.0,44,0.00,,,0.00,weatherlink.com 1.10,2013-03-16 03:19:00,
2013-03-15 22:25:00,68.7,45.9,29.84,South,188,9.0,9.0,44,0.00,,,0.00,Wunderground v.1.15,2013-03-16 03:25:00,
2013-03-15 22:30:00,68.8,46.0,29.84,SSW,194,8.0,8.0,44,0.00,,,0.00,Wunderground v.1.15,2013-03-16 03:30:00,
2013-03-15 22:34:00,69.0,46.0,29.84,South,188,6.0,20.0,44,0.00,,,0.00,weatherlink.com 1.10,2013-03-16 03:34:00,
2013-03-15 22:40:00,69.2,45.7,29.84,SSW,196,10.0,17.0,43,0.00,,,0.00,Wunderground v.1.15,2013-03-16 03:40:00,
2013-03-15 22:45:00,69.5,46.0,29.83,SSW,206,11.0,17.0,43,0.00,,,0.00,Wunderground v.1.15,2013-03-16 03:45:00,
2013-03-15 22:49:00,69.7,45.0,29.84,SSW,209,7.0,17.0,42,0.00,,,0.00,weatherlink.com 1.10,2013-03-16 03:49:00,
2013-03-15 22:55:00,70.0,45.2,29.83,SSW,213,12.0,17.0,41,0.00,,,0.00,Wunderground v.1.15,2013-03-16 03:55:00,
2013-03-15 23:00:00,70.1,45.3,29.83,SSW,194,12.0,12.0,41,0.00,,,0.00,Wunderground v.1.15,2013-03-16 04:00:00,
2013-03-15 23:03:00,70.2,45.0,29.83,South,178,16.0,19.0,40,0.00,,,0.00,weatherlink.com 1.10,2013-03-16 04:03:00,
2013-03-15 23:05:00,70.1,44.6,29.83,SSW,205,13.0,14.0,40,0.00,,,0.00,Wunderground v.1.15,2013-03-16 04:05:00,
2013-03-15 23:10:00,70.1,44.6,29.83,SSW,198,13.0,16.0,40,0.00,,,0.00,Wunderground v.1.15,2013-03-16 04:10:00,
2013-03-15 23:15:00,70.1,44.6,29.83,SSW,198,13.0,18.0,40,0.00,,,0.00,Wunderground v.1.15,2013-03-16 04:15:00,
2013-03-15 23:19:00,70.1,45.0,29.83,South,189,17.0,25.0,40,0.00,,,0.00,weatherlink.com 1.10,2013-03-16 04:19:00,
2013-03-15 23:25:00,70.1,44.6,29.83,SSW,193,15.0,18.0,40,0.00,,,0.00,Wunderground v.1.15,2013-03-16 04:25:00,
2013-03-15 23:30:00,70.0,43.9,29.83,SW,221,15.0,15.0,39,0.00,,,0.00,Wunderground v.1.15,2013-03-16 04:30:00,
2013-03-15 23:34:00,69.8,44.0,29.83,SSW,207,18.0,24.0,40,0.00,,,0.00,weatherlink.com 1.10,2013-03-16 04:34:00,
2013-03-15 23:35:00,69.8,44.4,29.83,SSW,192,14.0,15.0,40,0.00,,,0.00,Wunderground v.1.15,2013-03-16 04:35:00,
2013-03-15 23:40:00,69.7,44.3,29.83,SW,215,13.0,13.0,40,0.00,,,0.00,Wunderground v.1.15,2013-03-16 04:40:00,
2013-03-15 23:45:00,69.5,44.1,29.82,SSW,202,13.0,14.0,40,0.00,,,0.00,Wunderground v.1.15,2013-03-16 04:45:00,
2013-03-15 23:49:00,69.2,44.0,29.82,SSW,212,11.0,20.0,40,0.00,,,0.00,weatherlink.com 1.10,2013-03-16 04:49:00,
2013-03-15 23:55:00,69.0,44.3,29.82,SSW,213,12.0,13.0,41,0.00,,,0.00,Wunderground v.1.15,2013-03-16 04:55:00,